Content
SEND FEEDBACK

Daily
Averages
Monthly
Summary
Canada

QUEBEC CITY, QUEBEC


Home > North America > Canada > Quebec
Elevation: 239 feet     Latitude: 46 48N     Longitude: 071 23W

WEATHER
 
SELECT A DAY
Number of Records: 191,965;   Date Range: 6/30/96 - 7/20/14
 
SHARE

PRINT THIS DATA

[ ← Previous Day ]
WEATHER ALMANAC - FEBRUARY 24, 2014
[ Next Day → ]
[ °C ]   °F
Weather ElementAverageHighLow
Temperature19 °F25 °F (1:00 am)10.4 °F (11:00 pm)
Dewpoint9.4 °F20 °F (1:00 am)-2.2 °F (11:00 pm)
Humidity64.4 %80 % (1:00 am)43 % (1:00 pm)
Barometer29.72 in29.83 in (11:00 pm)29.67 in (1:00 pm)
Wind Speed13.1 mph19.6 mph (1:24 pm)
Wind Gust29.9 mph (4:00 pm)
Weather ElementAverage
Visibility11.6 mi
Wind DirectionWSW (255.4 °)

Weather ElementTotal
Precipitation---
Heating Degree Days47.3 (Base 65)
Averaged from 39 records on February 24, 2014
WEATHER CONDITIONS BREAKOUT
WIND DIRECTION BREAKOUT
WEATHER BY HOUR - FEBRUARY 24, 2014
[ °C ]   °F
Local TimeTemperatureDewpointHumidityBarometerVisibilityWind DirectionWind SpeedGust SpeedPrecipitationEventsConditions
1:00 AM25.0 °F20.0 °F74 %29.70 inWSW (240°)6.9 mph
1:00 AM24.8 °F19.4 °F80 %29.70 in15.0 miWSW (240°)10.4 mphOvercast
2:00 AM24.8 °F15.8 °F69 %29.69 in15.0 miWNW (300°)6.9 mphMostly Cloudy
3:00 AM23.0 °F15.8 °F74 %29.69 in10.0 miWSW (250°)10.4 mphSnowLight Snow Showers
4:00 AM22.0 °F16.0 °F68 %29.70 inWest (270°)5.8 mph
4:00 AM21.2 °F15.8 °F80 %29.70 in15.0 miWest (270°)6.9 mphMostly Cloudy
5:00 AM21.2 °F8.6 °F58 %29.71 in15.0 miWest (280°)8.1 mphMostly Cloudy
6:00 AM19.4 °F8.6 °F63 %29.70 in15.0 miWest (270°)6.9 mphMostly Cloudy
7:00 AM19.4 °F8.6 °F63 %29.72 in20.0 miWSW (250°)10.4 mphMostly Cloudy
7:00 AM19.0 °F10.0 °F55 %29.72 inWSW (250°)8.1 mph
8:00 AM19.4 °F10.4 °F68 %29.73 in20.0 miWSW (250°)10.4 mphMostly Cloudy
9:00 AM19.4 °F10.4 °F68 %29.73 in30.0 miWest (260°)9.2 mphOvercast
9:08 AM19.4 °F10.4 °F68 %29.73 in20.0 miWest (260°)10.4 mphSnowLight Snow
10:00 AM19.4 °F12.2 °F74 %29.72 in8.0 miWSW (250°)11.5 mphSnowLight Snow
10:00 AM20.0 °F12.0 °F59 %29.72 inWSW (250°)9.2 mph
11:00 AM19.4 °F8.6 °F63 %29.71 in8.0 miWSW (240°)16.1 mphSnowLight Snow
11:40 AM21.2 °F6.8 °F54 %29.70 in10.0 miWSW (250°)18.4 mphMostly Cloudy
12:00 PM21.2 °F6.8 °F54 %29.69 in10.0 miSW (230°)16.1 mphMostly Cloudy
1:00 PM21.2 °F8.6 °F58 %29.67 in6.0 miWSW (240°)17.3 mphMostly Cloudy
1:00 PM21.0 °F8.0 °F43 %29.68 inWSW (250°)12.7 mph
1:15 PM21.2 °F6.8 °F54 %29.67 in5.0 miWest (270°)16.1 mph21.9 mphSnowLight Snow Showers
1:24 PM19.4 °F10.4 °F68 %29.67 in1.0 miWest (260°)19.6 mphSnowLight Snow Showers
1:29 PM19.4 °F12.2 °F74 %29.67 in6.0 miWest (260°)13.8 mph21.9 mphSnowLight Snow Showers
2:00 PM19.4 °F10.4 °F68 %29.67 in6.0 miSW (230°)18.4 mphSnowLight Snow Showers
3:00 PM19.4 °F6.8 °F58 %29.68 in8.0 miWSW (240°)17.3 mphSnowLight Snow Showers
4:00 PM18.0 °F12.0 °F66 %29.70 inWSW (240°)13.8 mph
4:00 PM17.6 °F10.4 °F73 %29.69 in3.0 miWSW (240°)19.6 mph29.9 mphSnowLight Snow Showers
4:28 PM17.6 °F12.2 °F79 %29.70 in1.5 miWSW (240°)18.4 mph25.3 mphSnowLight Snow Showers
4:51 PM17.6 °F12.2 °F79 %29.71 in15.0 miWSW (240°)13.8 mphSnowLight Snow Showers
5:00 PM17.6 °F10.4 °F73 %29.71 in10.0 miWSW (240°)11.5 mphSnowLight Snow Showers
5:33 PM17.6 °F6.8 °F63 %29.72 in8.0 miWSW (250°)16.1 mph24.2 mphSnowLight Snow Showers
6:00 PM17.6 °F5.0 °F58 %29.73 in10.0 miWSW (240°)19.6 mphSnowLight Snow Showers
7:00 PM17.0 °F8.0 °F57 %29.76 inWest (270°)8.1 mph
7:00 PM15.8 °F6.8 °F68 %29.75 in10.0 miWSW (250°)9.2 mphMostly Cloudy
8:00 PM15.8 °F3.2 °F58 %29.77 in15.0 miWest (280°)17.3 mphMostly Cloudy
9:00 PM14.0 °F1.4 °F57 %29.80 in15.0 miWest (280°)15.0 mph24.2 mphMostly Cloudy
10:00 PM12.0 °F3.0 °F53 %29.82 inWest (280°)15.0 mph
10:00 PM12.2 °F-0.4 °F57 %29.82 in15.0 miWest (270°)19.6 mph25.3 mphPartly Cloudy
11:00 PM10.4 °F-2.2 °F57 %29.83 in15.0 miWest (280°)15.0 mphPartly Cloudy
Hourly data recorded from CYQB, located miles away from Quebec City, Quebec







STORIES FROM OUR PARTNERS